Zurück zum Katalog

CZ-6A DEB

AktivSSO
NORAD 54924·DEBRIS·🇨🇳 China

Gestartet Nov 11, 2022 von Taiyuan Satellite Launch Center

Loading…

Nächste Überflüge (nächste 24 Stunden)

TLE

AktuellSource: Space-Track

Epoche: Sep 13, 2026, 01:10 UTC

1 54924U 22151RM  26256.04884513  .00002817  00000-0  89109-3 0  9997
2 54924  98.7317 297.9732 0039019  48.6859 311.7676 14.40528438199999

Verfolge CZ-6A DEB in Echtzeit mit AllMySat

Download on the App Store